Time,TemperatureF,DewpointF,PressureIn,WindDirection,WindDirectionDegrees,WindSpeedMPH,WindSpeedGustMPH,Humidity,HourlyPrecipIn,Conditions,Clouds,dailyrainin,SoftwareType,DateUTC
2013-01-13 00:00:00,70.8,67.7,29.83,South,183,0.0,4.0,90,0.00,,---,0.00,VWS V14.01,2013-01-13 06:00:00,
2013-01-13 00:06:00,70.8,67.7,29.83,South,187,0.0,6.0,90,0.00,,---,0.00,VWS V14.01,2013-01-13 06:06:00,
2013-01-13 00:11:00,70.8,67.7,29.83,South,173,1.0,7.0,90,0.00,,---,0.00,VWS V14.01,2013-01-13 06:11:00,
2013-01-13 00:15:00,70.8,67.7,29.83,SSE,160,2.0,7.0,90,0.00,,---,0.00,VWS V14.01,2013-01-13 06:15:00,
2013-01-13 00:16:00,70.8,67.7,29.83,SSE,156,0.0,6.0,90,0.00,,---,0.00,VWS V14.01,2013-01-13 06:16:00,
2013-01-13 00:21:00,70.8,68.1,29.83,SSE,167,3.0,9.0,91,0.00,,---,0.00,VWS V14.01,2013-01-13 06:21:00,
2013-01-13 00:26:00,70.8,67.7,29.83,South,177,0.0,9.0,90,0.00,,---,0.00,VWS V14.01,2013-01-13 06:26:00,
2013-01-13 00:30:00,70.8,68.1,29.82,South,183,4.0,9.0,91,0.00,,---,0.00,VWS V14.01,2013-01-13 06:30:00,
2013-01-13 00:31:00,70.8,68.1,29.82,SSW,196,0.0,4.0,91,0.00,,---,0.00,VWS V14.01,2013-01-13 06:31:00,
2013-01-13 00:36:00,70.8,68.1,29.82,SSE,147,0.0,4.0,91,0.00,,---,0.00,VWS V14.01,2013-01-13 06:36:00,
2013-01-13 00:41:00,70.8,68.1,29.82,SSW,195,1.0,4.0,91,0.00,,---,0.00,VWS V14.01,2013-01-13 06:41:00,
2013-01-13 00:45:00,70.8,68.1,29.82,SSW,195,0.0,4.0,91,0.00,,---,0.00,VWS V14.01,2013-01-13 06:45:00,
2013-01-13 00:46:00,70.6,67.8,29.82,South,186,5.0,6.0,91,0.00,,---,0.00,VWS V14.01,2013-01-13 06:46:00,
2013-01-13 00:52:00,70.6,67.8,29.82,South,169,0.0,6.0,91,0.00,,---,0.00,VWS V14.01,2013-01-13 06:52:00,
2013-01-13 00:57:00,70.6,67.8,29.82,South,169,0.0,6.0,91,0.00,,---,0.00,VWS V14.01,2013-01-13 06:57:00,
2013-01-13 01:00:00,70.6,67.8,29.81,South,175,0.0,6.0,91,0.00,,---,0.00,VWS V14.01,2013-01-13 07:00:00,
2013-01-13 01:02:00,70.6,67.8,29.81,South,175,0.0,0.0,91,0.00,,---,0.00,VWS V14.01,2013-01-13 07:02:00,
2013-01-13 01:07:00,70.6,67.8,29.81,South,178,0.0,7.0,91,0.00,,---,0.00,VWS V14.01,2013-01-13 07:07:00,
2013-01-13 01:12:00,70.6,67.8,29.81,South,182,3.0,7.0,91,0.00,,---,0.00,VWS V14.01,2013-01-13 07:12:00,
2013-01-13 01:15:00,70.6,67.8,29.82,South,182,0.0,7.0,91,0.00,,---,0.00,VWS V14.01,2013-01-13 07:15:00,
2013-01-13 01:17:00,70.6,67.8,29.82,South,183,1.0,2.0,91,0.00,,---,0.00,VWS V14.01,2013-01-13 07:17:00,
2013-01-13 01:22:00,70.6,68.2,29.82,SSE,166,2.0,6.0,92,0.00,,---,0.00,VWS V14.01,2013-01-13 07:22:00,
2013-01-13 01:27:00,70.6,68.2,29.82,South,190,2.0,6.0,92,0.00,,---,0.00,VWS V14.01,2013-01-13 07:27:00,
2013-01-13 01:30:00,70.6,68.2,29.81,South,186,0.0,6.0,92,0.00,,---,0.00,VWS V14.01,2013-01-13 07:30:00,
2013-01-13 01:32:00,70.4,68.0,29.81,South,188,4.0,4.0,92,0.00,,---,0.00,VWS V14.01,2013-01-13 07:32:00,
2013-01-13 01:37:00,70.4,68.0,29.81,South,181,3.0,6.0,92,0.00,,---,0.00,VWS V14.01,2013-01-13 07:37:00,
2013-01-13 01:43:00,70.4,68.0,29.81,SSE,161,2.0,6.0,92,0.00,,---,0.00,VWS V14.01,2013-01-13 07:43:00,
2013-01-13 01:45:00,70.4,68.0,29.81,SSE,155,2.0,6.0,92,0.00,,---,0.00,VWS V14.01,2013-01-13 07:45:00,
2013-01-13 01:48:00,70.4,68.0,29.81,SSE,161,0.0,3.0,92,0.00,,---,0.00,VWS V14.01,2013-01-13 07:48:00,
2013-01-13 01:53:00,70.4,68.0,29.81,South,178,2.0,6.0,92,0.00,,---,0.00,VWS V14.01,2013-01-13 07:53:00,
2013-01-13 01:58:00,70.4,68.0,29.81,South,180,2.0,6.0,92,0.00,,---,0.00,VWS V14.01,2013-01-13 07:58:00,
2013-01-13 02:00:00,70.4,68.0,29.81,South,178,5.0,6.0,92,0.00,,---,0.00,VWS V14.01,2013-01-13 08:00:00,
2013-01-13 02:03:00,70.4,68.0,29.81,SSE,166,2.0,8.0,92,0.00,,---,0.00,VWS V14.01,2013-01-13 08:03:00,
2013-01-13 02:08:00,70.3,67.9,29.81,South,189,3.0,8.0,92,0.00,,---,0.00,VWS V14.01,2013-01-13 08:08:00,
2013-01-13 02:13:00,70.3,68.2,29.81,South,176,5.0,9.0,93,0.00,,---,0.00,VWS V14.01,2013-01-13 08:13:00,
2013-01-13 02:15:00,70.3,68.2,29.80,SSE,153,5.0,9.0,93,0.00,,---,0.00,VWS V14.01,2013-01-13 08:15:00,
2013-01-13 02:18:00,70.3,68.2,29.80,SSE,159,3.0,5.0,93,0.00,,---,0.00,VWS V14.01,2013-01-13 08:18:00,
2013-01-13 02:23:00,70.3,68.2,29.80,SSE,161,3.0,6.0,93,0.00,,---,0.00,VWS V14.01,2013-01-13 08:23:00,
2013-01-13 02:29:00,70.3,68.2,29.80,South,179,4.0,13.0,93,0.00,,---,0.00,VWS V14.01,2013-01-13 08:29:00,
2013-01-13 02:30:00,70.3,68.2,29.80,South,178,6.0,13.0,93,0.00,,---,0.00,VWS V14.01,2013-01-13 08:30:00,
2013-01-13 02:34:00,70.3,68.2,29.80,South,173,3.0,11.0,93,0.00,,---,0.00,VWS V14.01,2013-01-13 08:34:00,
2013-01-13 02:39:00,70.3,68.2,29.80,SSE,163,3.0,11.0,93,0.00,,---,0.00,VWS V14.01,2013-01-13 08:39:00,
2013-01-13 02:44:00,70.3,68.2,29.80,SSE,164,6.0,11.0,93,0.00,,---,0.00,VWS V14.01,2013-01-13 08:44:00,
2013-01-13 02:45:00,70.3,68.2,29.80,SSE,162,3.0,11.0,93,0.00,,---,0.00,VWS V14.01,2013-01-13 08:45:00,
2013-01-13 02:49:00,70.3,68.2,29.80,South,183,5.0,12.0,93,0.00,,---,0.00,VWS V14.01,2013-01-13 08:49:00,
2013-01-13 02:54:00,70.4,68.3,29.80,South,172,4.0,13.0,93,0.00,,---,0.00,VWS V14.01,2013-01-13 08:54:00,
2013-01-13 02:59:00,70.4,68.3,29.79,SSE,153,9.0,18.0,93,0.00,,---,0.00,VWS V14.01,2013-01-13 08:59:00,
2013-01-13 03:00:00,70.4,68.3,29.79,SSE,155,5.0,18.0,93,0.00,,---,0.00,VWS V14.01,2013-01-13 09:00:00,
2013-01-13 03:04:00,70.4,68.3,29.79,SSW,192,16.0,17.0,93,0.00,,---,0.00,VWS V14.01,2013-01-13 09:04:00,
2013-01-13 03:09:00,70.6,68.2,29.79,South,171,5.0,17.0,92,0.00,,---,0.00,VWS V14.01,2013-01-13 09:09:00,
2013-01-13 03:14:00,70.8,68.4,29.76,SSW,198,12.0,12.0,92,0.00,,---,0.00,VWS V14.01,2013-01-13 09:14:00,
2013-01-13 03:15:00,70.6,68.2,29.76,South,177,5.0,18.0,92,0.00,,---,0.00,VWS V14.01,2013-01-13 09:15:00,
2013-01-13 03:20:00,70.8,68.4,29.76,South,186,12.0,17.0,92,0.00,,---,0.00,VWS V14.01,2013-01-13 09:20:00,
2013-01-13 03:30:00,70.9,68.2,29.76,South,180,8.0,19.0,91,0.00,,---,0.00,VWS V14.01,2013-01-13 09:30:00,
2013-01-13 03:45:00,71.3,68.2,29.76,South,180,10.0,23.0,90,0.00,,---,0.00,VWS V14.01,2013-01-13 09:45:00,
2013-01-13 04:00:00,71.5,68.4,29.75,South,180,10.0,22.0,90,0.00,,---,0.00,VWS V14.01,2013-01-13 10:00:00,
2013-01-13 04:15:00,71.5,68.1,29.74,South,180,11.0,26.0,89,0.00,,---,0.00,VWS V14.01,2013-01-13 10:15:00,
2013-01-13 04:30:00,71.5,68.1,29.75,South,180,10.0,25.0,89,0.00,,---,0.00,VWS V14.01,2013-01-13 10:30:00,
2013-01-13 04:45:00,71.6,67.9,29.75,South,180,9.0,22.0,88,0.00,,---,0.00,VWS V14.01,2013-01-13 10:45:00,
2013-01-13 05:00:00,71.6,67.5,29.76,South,180,10.0,24.0,87,0.00,,---,0.00,VWS V14.01,2013-01-13 11:00:00,
2013-01-13 05:15:00,71.8,67.4,29.78,SW,225,6.0,22.0,86,0.00,,---,0.00,VWS V14.01,2013-01-13 11:15:00,
2013-01-13 05:30:00,71.8,67.4,29.79,SW,225,4.0,13.0,86,0.00,,---,0.00,VWS V14.01,2013-01-13 11:30:00,
2013-01-13 05:45:00,72.0,67.6,29.81,SW,225,5.0,15.0,86,0.00,,---,0.00,VWS V14.01,2013-01-13 11:45:00,
2013-01-13 06:00:00,72.0,67.6,29.82,SW,225,5.0,14.0,86,0.00,,---,0.00,VWS V14.01,2013-01-13 12:00:00,
2013-01-13 06:15:00,71.8,67.1,29.82,SW,225,6.0,15.0,85,0.00,,---,0.00,VWS V14.01,2013-01-13 12:15:00,
2013-01-13 06:30:00,71.8,67.1,29.81,SSW,202,6.0,15.0,85,0.00,,---,0.00,VWS V14.01,2013-01-13 12:30:00,
2013-01-13 06:45:00,71.5,67.1,29.81,SSW,202,3.0,15.0,86,0.00,,---,0.00,VWS V14.01,2013-01-13 12:45:00,
2013-01-13 07:00:00,71.1,67.0,29.81,South,180,5.0,11.0,87,0.00,,---,0.00,VWS V14.01,2013-01-13 13:00:00,
2013-01-13 07:15:00,70.8,66.7,29.83,South,180,2.0,9.0,87,0.00,,---,0.00,VWS V14.01,2013-01-13 13:15:00,
2013-01-13 07:30:00,70.8,67.1,29.84,SSW,202,1.0,5.0,88,0.00,,---,0.00,VWS V14.01,2013-01-13 13:30:00,
2013-01-13 07:45:00,70.6,66.9,29.83,South,180,0.0,1.0,88,0.00,,---,0.00,VWS V14.01,2013-01-13 13:45:00,
2013-01-13 08:00:00,70.8,67.4,29.84,SSW,202,0.0,1.0,89,0.00,,---,0.00,VWS V14.01,2013-01-13 14:00:00,
2013-01-13 08:15:00,71.5,67.8,29.83,South,180,1.0,6.0,88,0.00,,---,0.00,VWS V14.01,2013-01-13 14:15:00,
2013-01-13 08:30:00,72.3,68.2,29.84,South,180,2.0,7.0,87,0.00,,---,0.00,VWS V14.01,2013-01-13 14:30:00,
2013-01-13 08:45:00,72.8,68.0,29.84,South,180,2.0,11.0,85,0.00,,---,0.00,VWS V14.01,2013-01-13 14:45:00,
2013-01-13 09:00:00,73.3,68.2,29.84,SSW,202,6.0,14.0,84,0.00,,---,0.00,VWS V14.01,2013-01-13 15:00:00,
2013-01-13 09:15:00,74.0,68.5,29.85,SSW,202,5.0,16.0,83,0.00,,---,0.00,VWS V14.01,2013-01-13 15:15:00,
2013-01-13 09:30:00,74.2,68.4,29.85,SSW,202,8.0,16.0,82,0.00,,---,0.00,VWS V14.01,2013-01-13 15:30:00,
2013-01-13 09:45:00,75.3,69.4,29.85,South,180,8.0,13.0,82,0.00,,---,0.00,VWS V14.01,2013-01-13 15:45:00,
2013-01-13 09:53:00,74.4,68.6,29.86,SSW,213,6.0,8.0,82,0.00,,---,0.00,VWS V14.01,2013-01-13 15:53:00,
2013-01-13 09:58:00,74.4,68.6,29.86,SW,214,4.0,22.0,82,0.00,,---,0.00,VWS V14.01,2013-01-13 15:58:00,
2013-01-13 10:00:00,74.6,68.8,29.86,SW,234,5.0,22.0,82,0.00,,---,0.00,VWS V14.01,2013-01-13 16:00:00,
2013-01-13 10:03:00,74.7,68.8,29.86,SSW,192,12.0,15.0,82,0.00,,---,0.00,VWS V14.01,2013-01-13 16:03:00,
2013-01-13 10:08:00,74.9,68.7,29.86,SSW,209,12.0,15.0,81,0.00,,---,0.00,VWS V14.01,2013-01-13 16:08:00,
2013-01-13 10:13:00,75.1,68.9,29.86,SW,227,11.0,15.0,81,0.00,,---,0.00,VWS V14.01,2013-01-13 16:13:00,
2013-01-13 10:15:00,75.1,68.9,29.86,SW,223,11.0,17.0,81,0.00,,---,0.00,VWS V14.01,2013-01-13 16:15:00,
2013-01-13 10:19:00,75.1,68.9,29.86,SW,225,7.0,13.0,81,0.00,,---,0.00,VWS V14.01,2013-01-13 16:19:00,
2013-01-13 10:24:00,75.1,69.2,29.86,SSW,213,0.0,13.0,82,0.00,,---,0.00,VWS V14.01,2013-01-13 16:24:00,
2013-01-13 10:29:00,75.1,69.2,29.86,South,188,6.0,14.0,82,0.00,,---,0.00,VWS V14.01,2013-01-13 16:29:00,
2013-01-13 10:30:00,75.1,69.2,29.86,SSW,198,4.0,14.0,82,0.00,,---,0.00,VWS V14.01,2013-01-13 16:30:00,
2013-01-13 10:34:00,75.1,69.2,29.86,SSW,211,8.0,12.0,82,0.00,,---,0.00,VWS V14.01,2013-01-13 16:34:00,
2013-01-13 10:39:00,75.1,69.2,29.86,SSW,194,8.0,12.0,82,0.00,,---,0.00,VWS V14.01,2013-01-13 16:39:00,
2013-01-13 10:44:00,75.3,69.4,29.85,SW,219,10.0,13.0,82,0.00,,---,0.00,VWS V14.01,2013-01-13 16:44:00,
2013-01-13 10:45:00,75.3,69.4,29.85,South,180,8.0,13.0,82,0.00,,---,0.00,VWS V14.01,2013-01-13 16:45:00,
2013-01-13 10:49:00,75.3,69.4,29.85,SSW,202,0.0,9.0,82,0.00,,---,0.00,VWS V14.01,2013-01-13 16:49:00,
2013-01-13 10:54:00,75.1,69.6,29.85,SSW,196,11.0,13.0,83,0.00,,---,0.00,VWS V14.01,2013-01-13 16:54:00,
2013-01-13 10:59:00,74.7,69.2,29.83,SSW,193,5.0,17.0,83,0.00,,---,0.00,VWS V14.01,2013-01-13 16:59:00,
2013-01-13 11:00:00,74.7,69.2,29.83,SSW,193,5.0,17.0,83,0.00,,---,0.00,VWS V14.01,2013-01-13 17:00:00,
2013-01-13 11:04:00,74.6,69.8,29.83,SSW,194,0.0,10.0,85,0.00,,---,0.00,VWS V14.01,2013-01-13 17:04:00,
2013-01-13 11:09:00,74.4,69.9,29.83,SSW,207,11.0,13.0,86,0.00,,---,0.00,VWS V14.01,2013-01-13 17:09:00,
2013-01-13 11:15:00,74.6,70.1,29.83,SSW,210,16.0,16.0,86,0.00,,---,0.00,VWS V14.01,2013-01-13 17:15:00,
2013-01-13 11:20:00,74.7,69.9,29.83,SSW,200,13.0,17.0,85,0.00,,---,0.00,VWS V14.01,2013-01-13 17:20:00,
2013-01-13 11:25:00,74.9,69.7,29.83,SSW,205,7.0,17.0,84,0.00,,---,0.00,VWS V14.01,2013-01-13 17:25:00,
2013-01-13 11:30:00,74.9,69.7,29.82,South,175,9.0,10.0,84,0.00,,---,0.00,VWS V14.01,2013-01-13 17:30:00,
2013-01-13 11:35:00,75.1,69.9,29.82,South,185,0.0,15.0,84,0.00,,---,0.00,VWS V14.01,2013-01-13 17:35:00,
2013-01-13 11:40:00,75.1,69.6,29.82,SSW,204,11.0,16.0,83,0.00,,---,0.00,VWS V14.01,2013-01-13 17:40:00,
2013-01-13 11:45:00,75.1,69.6,29.81,SSW,208,12.0,13.0,83,0.00,,---,0.00,VWS V14.01,2013-01-13 17:45:00,
2013-01-13 11:50:00,75.1,69.6,29.81,South,188,6.0,14.0,83,0.00,,---,0.00,VWS V14.01,2013-01-13 17:50:00,
2013-01-13 11:55:00,75.1,69.6,29.81,SW,216,7.0,19.0,83,0.00,,---,0.00,VWS V14.01,2013-01-13 17:55:00,
2013-01-13 12:00:00,75.1,69.6,29.79,SW,229,14.0,14.0,83,0.00,,---,0.00,VWS V14.01,2013-01-13 18:00:00,
2013-01-13 12:05:00,75.1,69.2,29.79,SSW,199,15.0,16.0,82,0.00,,---,0.00,VWS V14.01,2013-01-13 18:05:00,
2013-01-13 12:11:00,75.3,69.8,29.79,South,169,5.0,16.0,83,0.00,,---,0.00,VWS V14.01,2013-01-13 18:11:00,
2013-01-13 12:15:00,75.3,69.8,29.78,SSW,193,4.0,16.0,83,0.00,,---,0.00,VWS V14.01,2013-01-13 18:15:00,
2013-01-13 12:16:00,75.3,69.4,29.78,South,190,6.0,11.0,82,0.00,,---,0.00,VWS V14.01,2013-01-13 18:16:00,
2013-01-13 12:21:00,75.3,69.8,29.78,SSW,200,6.0,16.0,83,0.00,,---,0.00,VWS V14.01,2013-01-13 18:21:00,
2013-01-13 12:26:00,75.3,69.4,29.78,SSW,196,10.0,16.0,82,0.00,,---,0.00,VWS V14.01,2013-01-13 18:26:00,
2013-01-13 12:30:00,75.4,69.5,29.78,SSW,200,13.0,16.0,82,0.00,,---,0.00,VWS V14.01,2013-01-13 18:30:00,
2013-01-13 12:31:00,75.4,69.5,29.78,SSW,207,11.0,14.0,82,0.00,,---,0.00,VWS V14.01,2013-01-13 18:31:00,
2013-01-13 12:36:00,75.6,69.4,29.78,South,188,11.0,17.0,81,0.00,,---,0.00,VWS V14.01,2013-01-13 18:36:00,
2013-01-13 12:41:00,75.6,69.4,29.78,South,183,5.0,17.0,81,0.00,,---,0.00,VWS V14.01,2013-01-13 18:41:00,
2013-01-13 12:45:00,75.6,69.4,29.76,SSW,193,11.0,18.0,81,0.00,,---,0.00,VWS V14.01,2013-01-13 18:45:00,
2013-01-13 12:46:00,75.6,69.4,29.76,South,179,6.0,11.0,81,0.00,,---,0.00,VWS V14.01,2013-01-13 18:46:00,
2013-01-13 12:51:00,75.6,69.4,29.76,South,184,12.0,13.0,81,0.00,,---,0.00,VWS V14.01,2013-01-13 18:51:00,
2013-01-13 12:56:00,75.6,69.4,29.76,SSW,207,12.0,15.0,81,0.00,,---,0.00,VWS V14.01,2013-01-13 18:56:00,
2013-01-13 13:00:00,75.6,69.4,29.75,SSW,206,11.0,15.0,81,0.00,,---,0.00,VWS V14.01,2013-01-13 19:00:00,
2013-01-13 13:01:00,75.6,69.4,29.75,South,173,6.0,18.0,81,0.00,,---,0.00,VWS V14.01,2013-01-13 19:01:00,
2013-01-13 13:06:00,75.4,69.2,29.75,South,170,9.0,18.0,81,0.00,,---,0.00,VWS V14.01,2013-01-13 19:06:00,
2013-01-13 13:12:00,75.4,69.2,29.75,SSE,157,6.0,18.0,81,0.00,,---,0.00,VWS V14.01,2013-01-13 19:12:00,
2013-01-13 13:15:00,75.3,69.4,29.73,ESE,123,0.0,18.0,82,0.01,,---,0.01,VWS V14.01,2013-01-13 19:15:00,
2013-01-13 13:17:00,75.1,69.6,29.73,SSE,165,1.0,1.0,83,0.01,,---,0.01,VWS V14.01,2013-01-13 19:17:00,
2013-01-13 13:22:00,67.9,59.3,29.73,NW,321,23.0,43.0,74,0.18,,---,0.18,VWS V14.01,2013-01-13 19:22:00,
2013-01-13 13:27:00,60.9,56.7,29.73,NNW,346,15.0,43.0,86,0.51,,---,0.51,VWS V14.01,2013-01-13 19:27:00,
2013-01-13 13:30:00,59.2,56.0,29.81,NNW,334,12.0,43.0,89,0.55,,---,0.55,VWS V14.01,2013-01-13 19:30:00,
2013-01-13 13:32:00,58.4,55.5,29.81,NNW,344,17.0,24.0,90,0.56,,---,0.56,VWS V14.01,2013-01-13 19:32:00,
2013-01-13 13:37:00,57.2,54.9,29.81,NNW,340,15.0,25.0,92,0.59,,---,0.59,VWS V14.01,2013-01-13 19:37:00,
2013-01-13 13:42:00,56.7,54.7,29.81,NW,324,10.0,25.0,93,0.60,,---,0.60,VWS V14.01,2013-01-13 19:42:00,
2013-01-13 13:45:00,56.6,54.6,29.82,NNW,343,12.0,25.0,93,0.65,,---,0.65,VWS V14.01,2013-01-13 19:45:00,
2013-01-13 13:47:00,56.5,54.8,29.82,NNW,348,10.0,16.0,94,0.70,,---,0.70,VWS V14.01,2013-01-13 19:47:00,
2013-01-13 13:52:00,56.5,55.1,29.82,NNW,348,11.0,19.0,95,0.74,,---,0.74,VWS V14.01,2013-01-13 19:52:00,
2013-01-13 13:57:00,56.5,55.1,29.82,NNW,341,7.0,19.0,95,0.75,,---,0.75,VWS V14.01,2013-01-13 19:57:00,
2013-01-13 14:00:00,56.6,55.2,29.83,North,355,11.0,19.0,95,0.75,,---,0.75,VWS V14.01,2013-01-13 20:00:00,
2013-01-13 14:03:00,56.5,55.1,29.83,NNW,348,11.0,20.0,95,0.75,,---,0.75,VWS V14.01,2013-01-13 20:03:00,
2013-01-13 14:08:00,56.5,55.4,29.83,North,351,7.0,20.0,96,0.75,,---,0.75,VWS V14.01,2013-01-13 20:08:00,
2013-01-13 14:13:00,56.5,55.4,29.83,NW,321,5.0,20.0,96,0.75,,---,0.75,VWS V14.01,2013-01-13 20:13:00,
2013-01-13 14:15:00,56.5,55.4,29.84,NNW,337,6.0,20.0,96,0.75,,---,0.75,VWS V14.01,2013-01-13 20:15:00,
2013-01-13 14:18:00,56.5,55.4,29.84,North,351,5.0,10.0,96,0.74,,---,0.75,VWS V14.01,2013-01-13 20:18:00,
2013-01-13 14:23:00,56.0,54.6,29.84,NNW,342,9.0,15.0,95,0.74,,---,0.75,VWS V14.01,2013-01-13 20:23:00,
2013-01-13 14:28:00,55.4,54.0,29.84,NNW,328,10.0,17.0,95,0.74,,---,0.75,VWS V14.01,2013-01-13 20:28:00,
2013-01-13 14:30:00,55.1,53.7,29.86,NNW,336,10.0,18.0,95,0.74,,---,0.75,VWS V14.01,2013-01-13 20:30:00,
2013-01-13 14:33:00,54.4,53.0,29.86,NNW,331,14.0,20.0,95,0.20,,---,0.75,VWS V14.01,2013-01-13 20:33:00,
2013-01-13 14:38:00,53.9,52.5,29.86,NW,317,11.0,20.0,95,0.20,,---,0.75,VWS V14.01,2013-01-13 20:38:00,
2013-01-13 14:45:00,53.3,51.9,29.88,NNW,338,11.0,20.0,95,0.20,,---,0.75,VWS V14.01,2013-01-13 20:45:00,
2013-01-13 15:00:00,53.1,52.0,29.88,NNW,338,9.0,16.0,96,0.11,,---,0.76,VWS V14.01,2013-01-13 21:00:00,
2013-01-13 15:15:00,51.9,50.8,29.90,NNW,338,10.0,20.0,96,0.05,,---,0.80,VWS V14.01,2013-01-13 21:15:00,
2013-01-13 15:30:00,51.4,50.3,29.91,NNW,338,8.0,19.0,96,0.06,,---,0.81,VWS V14.01,2013-01-13 21:30:00,
2013-01-13 15:45:00,51.4,50.6,29.93,North,0,4.0,10.0,97,0.06,,---,0.81,VWS V14.01,2013-01-13 21:45:00,
2013-01-13 16:00:00,51.0,49.9,29.95,NNW,338,4.0,11.0,96,0.06,,---,0.81,VWS V14.01,2013-01-13 22:00:00,
2013-01-13 16:15:00,50.8,50.0,29.94,North,0,6.0,14.0,97,0.07,,---,0.83,VWS V14.01,2013-01-13 22:15:00,
2013-01-13 16:30:00,50.7,49.9,29.94,NNE,22,10.0,17.0,97,0.06,,---,0.86,VWS V14.01,2013-01-13 22:30:00,
2013-01-13 16:45:00,48.5,47.7,29.99,NE,48,6.0,11.0,97,0.25,,---,1.11,VWS V14.01,2013-01-13 22:45:00,
2013-01-13 16:57:00,49.9,49.1,29.95,NNE,16,7.0,10.0,97,0.08,,---,0.89,VWS V14.01,2013-01-13 22:57:00,
2013-01-13 17:00:00,49.9,49.1,29.95,NNE,24,6.0,10.0,97,0.09,,---,0.90,VWS V14.01,2013-01-13 23:00:00,
2013-01-13 17:03:00,49.9,49.1,29.95,North,350,5.0,13.0,97,0.10,,---,0.91,VWS V14.01,2013-01-13 23:03:00,
2013-01-13 17:08:00,49.9,49.1,29.95,North,355,5.0,14.0,97,0.11,,---,0.92,VWS V14.01,2013-01-13 23:08:00,
2013-01-13 17:13:00,49.8,49.0,29.95,NNE,28,5.0,14.0,97,0.15,,---,0.96,VWS V14.01,2013-01-13 23:13:00,
2013-01-13 17:15:00,49.8,49.0,29.98,NE,44,13.0,16.0,97,0.17,,---,0.98,VWS V14.01,2013-01-13 23:15:00,
2013-01-13 17:18:00,49.4,48.6,29.98,NNW,342,6.0,13.0,97,0.19,,---,1.02,VWS V14.01,2013-01-13 23:18:00,
2013-01-13 17:23:00,48.9,48.1,29.98,North,355,8.0,16.0,97,0.22,,---,1.05,VWS V14.01,2013-01-13 23:23:00,
2013-01-13 17:28:00,48.6,47.8,29.98,North,355,7.0,16.0,97,0.24,,---,1.07,VWS V14.01,2013-01-13 23:28:00,
2013-01-13 17:30:00,48.6,47.8,29.98,North,360,4.0,16.0,97,0.25,,---,1.08,VWS V14.01,2013-01-13 23:30:00,
2013-01-13 17:33:00,48.5,47.7,29.98,NNE,32,3.0,11.0,97,0.24,,---,1.10,VWS V14.01,2013-01-13 23:33:00,
2013-01-13 17:38:00,48.5,47.7,29.98,North,360,9.0,11.0,97,0.24,,---,1.10,VWS V14.01,2013-01-13 23:38:00,
2013-01-13 17:43:00,48.5,47.7,29.99,NNE,32,7.0,11.0,97,0.25,,---,1.11,VWS V14.01,2013-01-13 23:43:00,
2013-01-13 17:45:00,48.5,47.7,29.99,NE,48,6.0,11.0,97,0.25,,---,1.11,VWS V14.01,2013-01-13 23:45:00,
2013-01-13 17:48:00,48.5,47.7,29.99,North,360,6.0,13.0,97,0.21,,---,1.11,VWS V14.01,2013-01-13 23:48:00,
2013-01-13 17:53:00,48.3,47.5,29.99,North,11,6.0,13.0,97,0.21,,---,1.11,VWS V14.01,2013-01-13 23:53:00,
2013-01-13 17:58:00,48.3,47.5,29.98,NNE,22,5.0,13.0,97,0.21,,---,1.11,VWS V14.01,2013-01-13 23:58:00,
2013-01-13 18:00:00,48.3,47.5,29.98,NNW,334,9.0,13.0,97,0.21,,---,1.11,VWS V14.01,2013-01-14 00:00:00,
2013-01-13 18:04:00,48.5,48.0,29.98,North,5,7.0,11.0,98,0.21,,---,1.11,VWS V14.01,2013-01-14 00:04:00,
2013-01-13 18:09:00,48.5,48.0,29.98,NNE,28,7.0,11.0,98,0.21,,---,1.11,VWS V14.01,2013-01-14 00:09:00,
2013-01-13 18:14:00,48.3,47.8,30.00,North,355,6.0,14.0,98,0.21,,---,1.11,VWS V14.01,2013-01-14 00:14:00,
2013-01-13 18:15:00,48.3,47.8,30.00,North,5,4.0,14.0,98,0.21,,---,1.11,VWS V14.01,2013-01-14 00:15:00,
2013-01-13 18:19:00,48.3,47.8,30.00,NNW,344,5.0,7.0,98,0.13,,---,1.11,VWS V14.01,2013-01-14 00:19:00,
2013-01-13 18:24:00,48.2,47.7,30.00,NNE,17,4.0,12.0,98,0.13,,---,1.11,VWS V14.01,2013-01-14 00:24:00,
2013-01-13 18:29:00,47.9,47.1,30.00,NNW,344,9.0,12.0,97,0.13,,---,1.11,VWS V14.01,2013-01-14 00:29:00,
2013-01-13 18:30:00,47.9,47.1,30.00,North,349,6.0,12.0,97,0.13,,---,1.11,VWS V14.01,2013-01-14 00:30:00,
2013-01-13 18:34:00,47.9,47.4,30.00,NNE,15,11.0,15.0,98,0.03,,---,1.11,VWS V14.01,2013-01-14 00:34:00,
2013-01-13 18:39:00,47.7,47.2,30.00,NNW,333,8.0,15.0,98,0.03,,---,1.11,VWS V14.01,2013-01-14 00:39:00,
2013-01-13 18:44:00,47.7,47.2,30.00,NNE,26,6.0,15.0,98,0.03,,---,1.11,VWS V14.01,2013-01-14 00:44:00,
2013-01-13 18:45:00,47.7,47.2,30.00,NNE,26,6.0,15.0,98,0.03,,---,1.11,VWS V14.01,2013-01-14 00:45:00,
2013-01-13 18:49:00,47.4,46.9,30.00,North,5,9.0,17.0,98,0.00,,---,1.11,VWS V14.01,2013-01-14 00:49:00,
2013-01-13 18:54:00,47.1,46.6,30.00,NNE,15,15.0,17.0,98,0.00,,---,1.11,VWS V14.01,2013-01-14 00:54:00,
2013-01-13 18:59:00,47.0,46.2,30.00,NNE,30,9.0,11.0,97,0.00,,---,1.11,VWS V14.01,2013-01-14 00:59:00,
2013-01-13 19:00:00,47.0,46.2,30.00,North,9,11.0,17.0,97,0.00,,---,1.11,VWS V14.01,2013-01-14 01:00:00,
2013-01-13 19:05:00,47.0,46.5,30.00,North,5,11.0,14.0,98,0.01,,---,1.12,VWS V14.01,2013-01-14 01:05:00,
2013-01-13 19:10:00,47.1,46.6,30.00,NNE,30,3.0,14.0,98,0.01,,---,1.12,VWS V14.01,2013-01-14 01:10:00,
2013-01-13 19:15:00,47.3,46.8,30.00,North,360,5.0,10.0,98,0.02,,---,1.13,VWS V14.01,2013-01-14 01:15:00,
2013-01-13 19:20:00,47.3,46.8,30.00,NNE,26,9.0,14.0,98,0.04,,---,1.15,VWS V14.01,2013-01-14 01:20:00,
2013-01-13 19:25:00,47.3,46.8,30.00,North,350,4.0,14.0,98,0.05,,---,1.16,VWS V14.01,2013-01-14 01:25:00,
2013-01-13 19:30:00,47.3,46.8,30.00,NNE,27,6.0,11.0,98,0.06,,---,1.17,VWS V14.01,2013-01-14 01:30:00,
2013-01-13 19:35:00,47.3,46.8,30.00,NE,42,10.0,15.0,98,0.07,,---,1.18,VWS V14.01,2013-01-14 01:35:00,
2013-01-13 19:40:00,47.1,46.6,30.00,NNE,18,8.0,16.0,98,0.07,,---,1.18,VWS V14.01,2013-01-14 01:40:00,
2013-01-13 19:45:00,47.1,46.6,29.99,NNE,16,10.0,15.0,98,0.08,,---,1.19,VWS V14.01,2013-01-14 01:45:00,
2013-01-13 19:50:00,47.1,46.6,29.99,North,360,2.0,15.0,98,0.08,,---,1.19,VWS V14.01,2013-01-14 01:50:00,
2013-01-13 19:56:00,47.0,46.5,29.99,North,355,5.0,15.0,98,0.08,,---,1.19,VWS V14.01,2013-01-14 01:56:00,
2013-01-13 20:00:00,46.8,46.3,30.01,North,360,5.0,15.0,98,0.08,,---,1.19,VWS V14.01,2013-01-14 02:00:00,
2013-01-13 20:01:00,46.8,46.3,30.01,NNE,21,9.0,10.0,98,0.08,,---,1.19,VWS V14.01,2013-01-14 02:01:00,
2013-01-13 20:06:00,46.8,46.3,30.01,North,355,7.0,10.0,98,0.09,,---,1.20,VWS V14.01,2013-01-14 02:06:00,
2013-01-13 20:11:00,46.8,46.3,30.01,NNE,25,10.0,11.0,98,0.09,,---,1.20,VWS V14.01,2013-01-14 02:11:00,
2013-01-13 20:15:00,46.7,46.2,30.03,ENE,74,3.0,11.0,98,0.09,,---,1.20,VWS V14.01,2013-01-14 02:15:00,
2013-01-13 20:16:00,46.7,46.2,30.03,NE,36,4.0,5.0,98,0.07,,---,1.20,VWS V14.01,2013-01-14 02:16:00,
2013-01-13 20:21:00,46.7,46.2,30.03,NE,39,10.0,12.0,98,0.07,,---,1.20,VWS V14.01,2013-01-14 02:21:00,
2013-01-13 20:26:00,46.7,46.2,30.03,NNE,17,10.0,13.0,98,0.07,,---,1.20,VWS V14.01,2013-01-14 02:26:00,
2013-01-13 20:30:00,46.7,46.2,30.01,NNE,29,5.0,14.0,98,0.07,,---,1.20,VWS V14.01,2013-01-14 02:30:00,
2013-01-13 20:31:00,46.5,46.0,30.01,NE,55,11.0,14.0,98,0.03,,---,1.20,VWS V14.01,2013-01-14 02:31:00,
2013-01-13 20:36:00,46.5,46.0,30.01,NNE,26,3.0,15.0,98,0.03,,---,1.20,VWS V14.01,2013-01-14 02:36:00,
2013-01-13 20:41:00,46.5,46.0,30.01,NE,47,3.0,15.0,98,0.03,,---,1.20,VWS V14.01,2013-01-14 02:41:00,
2013-01-13 20:45:00,46.5,46.0,30.01,NE,34,5.0,15.0,98,0.03,,---,1.20,VWS V14.01,2013-01-14 02:45:00,
2013-01-13 20:46:00,46.5,46.0,30.01,NE,53,11.0,16.0,98,0.01,,---,1.20,VWS V14.01,2013-01-14 02:46:00,
2013-01-13 20:52:00,46.5,46.0,30.01,NNE,32,6.0,16.0,98,0.01,,---,1.20,VWS V14.01,2013-01-14 02:52:00,
2013-01-13 20:57:00,46.4,45.9,30.01,NNE,25,6.0,16.0,98,0.01,,---,1.20,VWS V14.01,2013-01-14 02:57:00,
2013-01-13 21:00:00,46.4,45.9,30.00,NNE,24,13.0,17.0,98,0.01,,---,1.20,VWS V14.01,2013-01-14 03:00:00,
2013-01-13 21:02:00,46.4,45.9,30.00,NNE,27,10.0,17.0,98,0.01,,---,1.20,VWS V14.01,2013-01-14 03:02:00,
2013-01-13 21:07:00,46.2,45.7,30.00,North,355,7.0,17.0,98,0.01,,---,1.20,VWS V14.01,2013-01-14 03:07:00,
2013-01-13 21:12:00,46.2,45.7,30.00,NNE,14,7.0,17.0,98,0.01,,---,1.20,VWS V14.01,2013-01-14 03:12:00,
2013-01-13 21:15:00,46.2,45.7,30.01,NNE,30,6.0,17.0,98,0.01,,---,1.20,VWS V14.01,2013-01-14 03:15:00,
2013-01-13 21:17:00,46.2,45.7,30.01,NE,36,7.0,12.0,98,0.00,,---,1.20,VWS V14.01,2013-01-14 03:17:00,
2013-01-13 21:22:00,46.2,45.7,30.01,North,5,6.0,12.0,98,0.00,,---,1.20,VWS V14.01,2013-01-14 03:22:00,
2013-01-13 21:27:00,46.2,45.7,30.01,NE,36,6.0,14.0,98,0.00,,---,1.20,VWS V14.01,2013-01-14 03:27:00,
2013-01-13 21:30:00,46.4,45.9,30.02,NE,38,7.0,14.0,98,0.00,,---,1.20,VWS V14.01,2013-01-14 03:30:00,
2013-01-13 21:32:00,46.4,45.9,30.02,North,5,3.0,13.0,98,0.00,,---,1.20,VWS V14.01,2013-01-14 03:32:00,
2013-01-13 21:37:00,46.2,45.7,30.02,North,9,5.0,13.0,98,0.00,,---,1.20,VWS V14.01,2013-01-14 03:37:00,
2013-01-13 21:42:00,46.2,45.7,30.02,NNE,20,8.0,13.0,98,0.00,,---,1.20,VWS V14.01,2013-01-14 03:42:00,
2013-01-13 21:45:00,46.1,45.6,30.02,NNE,17,11.0,16.0,98,0.00,,---,1.20,VWS V14.01,2013-01-14 03:45:00,
2013-01-13 21:48:00,46.1,45.6,30.02,NNE,28,16.0,19.0,98,0.00,,---,1.20,VWS V14.01,2013-01-14 03:48:00,
2013-01-13 21:53:00,46.0,45.5,30.02,NNE,20,12.0,19.0,98,0.00,,---,1.20,VWS V14.01,2013-01-14 03:53:00,
2013-01-13 21:58:00,46.0,45.5,30.02,North,5,6.0,19.0,98,0.00,,---,1.20,VWS V14.01,2013-01-14 03:58:00,
2013-01-13 22:00:00,45.8,45.3,30.02,North,355,3.0,19.0,98,0.00,,---,1.20,VWS V14.01,2013-01-14 04:00:00,
2013-01-13 22:03:00,45.8,45.3,30.02,North,5,3.0,14.0,98,0.00,,---,1.20,VWS V14.01,2013-01-14 04:03:00,
2013-01-13 22:08:00,45.7,45.2,30.02,NNE,32,12.0,14.0,98,0.00,,---,1.20,VWS V14.01,2013-01-14 04:08:00,
2013-01-13 22:13:00,45.7,45.2,30.02,NNE,22,11.0,15.0,98,0.00,,---,1.20,VWS V14.01,2013-01-14 04:13:00,
2013-01-13 22:15:00,45.7,45.2,30.04,NNE,15,13.0,15.0,98,0.00,,---,1.20,VWS V14.01,2013-01-14 04:15:00,
2013-01-13 22:18:00,45.5,45.0,30.04,NE,38,15.0,16.0,98,0.00,,---,1.20,VWS V14.01,2013-01-14 04:18:00,
2013-01-13 22:23:00,45.5,45.0,30.04,NE,43,11.0,20.0,98,0.00,,---,1.20,VWS V14.01,2013-01-14 04:23:00,
2013-01-13 22:28:00,45.5,45.0,30.04,North,351,12.0,20.0,98,0.00,,---,1.20,VWS V14.01,2013-01-14 04:28:00,
2013-01-13 22:30:00,45.5,45.0,30.04,NE,41,6.0,20.0,98,0.00,,---,1.20,VWS V14.01,2013-01-14 04:30:00,
2013-01-13 22:33:00,45.5,45.0,30.04,NNE,26,12.0,14.0,98,0.01,,---,1.21,VWS V14.01,2013-01-14 04:33:00,
2013-01-13 22:39:00,45.4,44.9,30.04,NNE,15,13.0,18.0,98,0.01,,---,1.21,VWS V14.01,2013-01-14 04:39:00,
2013-01-13 22:44:00,45.4,44.9,30.04,NNE,26,9.0,18.0,98,0.01,,---,1.21,VWS V14.01,2013-01-14 04:44:00,
2013-01-13 22:45:00,45.5,45.0,30.04,NE,43,9.0,18.0,98,0.01,,---,1.21,VWS V14.01,2013-01-14 04:45:00,
2013-01-13 22:49:00,45.5,45.0,30.04,NE,46,7.0,14.0,98,0.01,,---,1.21,VWS V14.01,2013-01-14 04:49:00,
2013-01-13 22:54:00,45.5,45.0,30.04,NNE,16,5.0,14.0,98,0.01,,---,1.21,VWS V14.01,2013-01-14 04:54:00,
2013-01-13 22:59:00,45.4,44.9,30.05,North,360,4.0,14.0,98,0.01,,---,1.21,VWS V14.01,2013-01-14 04:59:00,
2013-01-13 23:00:00,45.4,44.9,30.05,NNW,342,6.0,7.0,98,0.01,,---,1.21,VWS V14.01,2013-01-14 05:00:00,
2013-01-13 23:01:00,45.5,45.0,30.05,NNW,346,9.0,10.0,98,0.01,,---,1.21,VWS V14.01,2013-01-14 05:01:00,
2013-01-13 23:03:00,45.5,45.0,30.05,ENE,57,5.0,10.0,98,0.02,,---,1.22,VWS V14.01,2013-01-14 05:03:00,
2013-01-13 23:08:00,45.4,44.9,30.05,North,5,9.0,13.0,98,0.03,,---,1.23,VWS V14.01,2013-01-14 05:08:00,
2013-01-13 23:14:00,45.2,44.7,30.06,ENE,61,2.0,13.0,98,0.03,,---,1.23,VWS V14.01,2013-01-14 05:14:00,
2013-01-13 23:15:00,45.2,44.7,30.06,ENE,72,3.0,13.0,98,0.03,,---,1.23,VWS V14.01,2013-01-14 05:15:00,
2013-01-13 23:19:00,45.4,44.9,30.06,NNE,18,6.0,10.0,98,0.04,,---,1.24,VWS V14.01,2013-01-14 05:19:00,
2013-01-13 23:24:00,45.4,44.9,30.06,NE,34,6.0,16.0,98,0.04,,---,1.24,VWS V14.01,2013-01-14 05:24:00,
2013-01-13 23:29:00,45.4,45.1,30.02,NNE,16,7.0,16.0,99,0.04,,---,1.24,VWS V14.01,2013-01-14 05:29:00,
2013-01-13 23:30:00,45.4,45.1,30.02,NNE,17,12.0,16.0,99,0.04,,---,1.24,VWS V14.01,2013-01-14 05:30:00,
2013-01-13 23:34:00,45.2,44.7,30.02,NE,36,11.0,16.0,98,0.04,,---,1.24,VWS V14.01,2013-01-14 05:34:00,
2013-01-13 23:39:00,45.1,44.6,30.02,NE,37,10.0,16.0,98,0.04,,---,1.24,VWS V14.01,2013-01-14 05:39:00,
2013-01-13 23:44:00,45.1,44.6,30.03,NNE,17,13.0,16.0,98,0.04,,---,1.24,VWS V14.01,2013-01-14 05:44:00,
2013-01-13 23:45:00,45.1,44.6,30.03,NNE,21,14.0,16.0,98,0.04,,---,1.24,VWS V14.01,2013-01-14 05:45:00,
2013-01-13 23:49:00,44.9,44.4,30.03,NNE,12,6.0,17.0,98,0.03,,---,1.24,VWS V14.01,2013-01-14 05:49:00,
2013-01-13 23:54:00,44.9,44.4,30.03,North,355,4.0,17.0,98,0.03,,---,1.24,VWS V14.01,2013-01-14 05:54:00,
2013-01-13 23:59:00,45.1,44.8,30.06,North,5,7.0,17.0,99,0.06,,---,0.01,VWS V14.01,2013-01-14 05:59:00,